Morgantown, WV

5:51 PM EST on January 22, 2018 (GMT -0500)
Morgantown Municipal-Hart

Weather History for KMGW - October, 2012

Change the Weather History Date:

Tuesday, October 23, 2012

  Actual Average Record
Temperature  
Mean Temperature 67 °F 52 °F  
Max Temperature 78 °F 63 °F 83 °F (1920)
Min Temperature 55 °F 42 °F 23 °F (1969)
Degree Days  
Heating Degree Days 0 13  
Month to date heating degree days 202 231  
Since 1 July heating degree days 302 328  
Cooling Degree Days 2 0  
Month to date cooling degree days 19 10  
Year to date cooling degree days 1131 811  
Growing Degree Days 16 (Base 50)    
Moisture  
Dew Point 51 °F    
Average Humidity 60    
Maximum Humidity 83    
Minimum Humidity 37    
Precipitation  
Precipitation 0.00 in 0.09 in 1.67 in (1900)
Month to date precipitation 1.24 2.05  
Year to date precipitation 25.22 34.73  
Sea Level Pressure  
Sea Level Pressure 30.09 in    
Wind  
Wind Speed 4 mph (SSW)    
Max Wind Speed 13 mph    
Max Gust Speed 20 mph    
Visibility 10 miles    
Events      
T = Trace of Precipitation, MM = Missing Value Source: NWS Daily Summary

Daily Weather History Graph

Daily Weather History Graph

Search for Another Location

Airport or City:

Trip Planner

Search our weather history database for the weather conditions in past years. The results will help you decide how hot, cold, wet, or windy it might be!

Date:

Astronomy

Oct. 23, 2012 Rise Set
Actual Time 7:38 AM EDT 6:28 PM EDT
Civil Twilight 7:11 AM EDT 6:55 PM EDT
Nautical Twilight 6:39 AM EDT 7:27 PM EDT
Astronomical Twilight 6:08 AM EDT 7:58 PM EDT
Moon 3:10 PM EDT (10/23) 1:30 AM EDT (10/23)
Length of Visible Light 11h 44m
Length of Day
10h 49m
Waxing Gibbous, 66% of the Moon is Illuminated
Oct 23
Waxing Gibbous
Oct 29
Full
Nov 6
Last Quarter
Nov 13
New
Nov 20
First Quarter

Hourly Weather History & Observations

Time (EDT) Temp. Dew Point Humidity Pressure Visibility Wind Dir Wind Speed Gust Speed Precip Events Conditions
12:53 AM 61.0 °F 50.0 °F 67% 30.09 in 10.0 mi SSW 3.5 mph - N/A   Clear
2:53 AM 59.0 °F 50.0 °F 72% 30.11 in 10.0 mi Calm Calm - N/A   Clear
3:53 AM 57.9 °F 50.0 °F 75% 30.10 in 10.0 mi Calm Calm - N/A   Clear
4:53 AM 55.9 °F 50.0 °F 80% 30.09 in 10.0 mi Calm Calm - N/A   Overcast
5:53 AM 60.1 °F 51.1 °F 72% 30.10 in 10.0 mi Calm Calm - N/A   Overcast
6:53 AM 59.0 °F 51.1 °F 75% 30.11 in 10.0 mi Calm Calm - N/A   Overcast
8:53 AM 62.1 °F 52.0 °F 70% 30.13 in 10.0 mi Calm Calm - N/A   Overcast
9:53 AM 64.9 °F 52.0 °F 63% 30.12 in 10.0 mi SW 4.6 mph - N/A   Scattered Clouds
10:53 AM 72.0 °F 51.1 °F 48% 30.10 in 10.0 mi Variable 5.8 mph - N/A   Scattered Clouds
11:53 AM 71.1 °F 50.0 °F 47% 30.12 in 10.0 mi SW 10.4 mph - N/A   Mostly Cloudy
1:53 PM 75.0 °F 50.0 °F 41% 30.08 in 10.0 mi WSW 8.1 mph - N/A   Partly Cloudy
2:53 PM 78.1 °F 50.0 °F 37% 30.06 in 10.0 mi SW 6.9 mph - N/A   Partly Cloudy
3:53 PM 77.0 °F 50.0 °F 39% 30.05 in 10.0 mi SSW 11.5 mph 19.6 mph N/A   Clear
4:53 PM 75.9 °F 50.0 °F 40% 30.05 in 10.0 mi SSW 4.6 mph - N/A   Clear
5:53 PM 75.0 °F 51.1 °F 43% 30.05 in 10.0 mi SW 6.9 mph - N/A   Clear
7:53 PM 69.1 °F 51.1 °F 53% 30.08 in 10.0 mi Calm Calm - N/A   Clear
8:53 PM 66.0 °F 51.1 °F 59% 30.08 in 10.0 mi South 3.5 mph - N/A   Clear
9:53 PM 64.9 °F 51.1 °F 61% 30.09 in 10.0 mi South 3.5 mph - N/A   Clear
10:53 PM 63.0 °F 51.1 °F 65% 30.09 in 10.0 mi South 3.5 mph - N/A   Clear
11:53 PM 59.0 °F 52.0 °F 78% 30.10 in 10.0 mi South 3.5 mph - N/A   Clear